• în Republica Moldova
  • Lista ţărilor
  • Pe 7 zile
  • Temperatura apei
  • Hartă satelitară
  • Meteo pe hartă
  • Widget-uri
  • user-avatar
    Intrare

    Meteo pe oră la Naftalan

    Astăzi, 30 Mai, Marţi

    Timp Temperatura Precipitaţii Vânt Presiune Umiditate
    00:00 +19°C° 0 mm 3 m/s 767 mmHg 75%
    01:00 +18°C° 0 mm 3 m/s 767 mmHg 77%
    02:00 +18°C° 0 mm 3 m/s 767 mmHg 80%
    03:00 +18°C° 0 mm 3 m/s 766 mmHg 80%
    04:00 +19°C° 0 mm 3 m/s 766 mmHg 77%
    05:00 +20°C° 0 mm 3 m/s 766 mmHg 73%
    06:00 +21°C° 0 mm 3 m/s 765 mmHg 70%
    07:00 +22°C° 0 mm 3 m/s 765 mmHg 63%
    08:00 +25°C° 0 mm 3 m/s 765 mmHg 56%
    09:00 +26°C° 0 mm 3 m/s 765 mmHg 49%
    10:00 +28°C° 0 mm 3 m/s 764 mmHg 47%
    11:00 +29°C° 0 mm 3 m/s 764 mmHg 44%
    12:00 +30°C° 0 mm 4 m/s 763 mmHg 41%
    13:00 +30°C° 0 mm 4 m/s 763 mmHg 42%
    14:00 +30°C° 0 mm 4 m/s 762 mmHg 42%
    15:00 +30°C° 0 mm 4 m/s 761 mmHg 43%
    16:00 +29°C° 0 mm 4 m/s 761 mmHg 47%
    17:00 +28°C° 0 mm 4 m/s 761 mmHg 52%
    18:00 +26°C° 0 mm 4 m/s 761 mmHg 57%
    19:00 +25°C° 0 mm 3 m/s 761 mmHg 62%
    20:00 +22°C° 0 mm 3 m/s 761 mmHg 68%
    21:00 +21°C° 0 mm 2 m/s 761 mmHg 73%
    22:00 +20°C° 0 mm 2 m/s 761 mmHg 75%
    23:00 +21°C° 0 mm 1 m/s 761 mmHg 77%

    Mâine, 31 Mai, Miercuri

    Timp Temperatura Precipitaţii Vânt Presiune Umiditate
    00:00 +21°C° 0 mm 1 m/s 760 mmHg 79%
    01:00 +21°C° 0 mm 1 m/s 760 mmHg 79%
    02:00 +20°C° 0 mm 1 m/s 760 mmHg 80%
    03:00 +20°C° 0 mm 1 m/s 760 mmHg 80%
    04:00 +22°C° 0 mm 1 m/s 760 mmHg 74%
    05:00 +24°C° 0 mm 1 m/s 760 mmHg 68%
    06:00 +25°C° 0 mm 1 m/s 760 mmHg 62%
    07:00 +27°C° 0 mm 1 m/s 760 mmHg 55%
    08:00 +29°C° 0 mm 2 m/s 760 mmHg 48%
    09:00 +31°C° 0 mm 2 m/s 760 mmHg 41%
    10:00 +33°C° 0 mm 3 m/s 759 mmHg 39%
    11:00 +34°C° 0 mm 3 m/s 759 mmHg 37%
    12:00 +35°C° 0 mm 4 m/s 759 mmHg 34%
    13:00 +35°C° 0 mm 4 m/s 758 mmHg 35%
    14:00 +34°C° 0 mm 5 m/s 758 mmHg 36%
    15:00 +34°C° 0 mm 5 m/s 757 mmHg 37%
    16:00 +32°C° 0 mm 5 m/s 757 mmHg 42%
    17:00 +30°C° 0 mm 5 m/s 757 mmHg 46%
    18:00 +28°C° 0 mm 5 m/s 757 mmHg 50%
    19:00 +26°C° 0 mm 5 m/s 757 mmHg 56%
    20:00 +25°C° 0 mm 5 m/s 758 mmHg 61%
    21:00 +22°C° 0 mm 5 m/s 758 mmHg 66%
    22:00 +21°C° 0 mm 5 m/s 758 mmHg 67%
    23:00 +21°C° 0 mm 4 m/s 758 mmHg 67%

    Poimâine, 1 Iunie, Joi

    Timp Temperatura Precipitaţii Vânt Presiune Umiditate
    00:00 +21°C° 0 mm 4 m/s 758 mmHg 68%
    01:00 +20°C° 0 mm 4 m/s 758 mmHg 69%
    02:00 +20°C° 0 mm 4 m/s 758 mmHg 70%
    03:00 +20°C° 0 mm 3 m/s 758 mmHg 71%
    04:00 +21°C° 0 mm 3 m/s 759 mmHg 68%
    05:00 +22°C° 0 mm 3 m/s 759 mmHg 65%
    06:00 +24°C° 0 mm 3 m/s 759 mmHg 62%
    07:00 +26°C° 0 mm 3 m/s 759 mmHg 55%
    08:00 +27°C° 0 mm 3 m/s 759 mmHg 47%
    09:00 +29°C° 0 mm 3 m/s 759 mmHg 40%
    10:00 +30°C° 0 mm 3 m/s 759 mmHg 37%
    11:00 +31°C° 0 mm 3 m/s 759 mmHg 34%
    12:00 +34°C° 0 mm 3 m/s 759 mmHg 31%
    13:00 +33°C° 0 mm 4 m/s 759 mmHg 33%
    14:00 +33°C° 0 mm 5 m/s 758 mmHg 36%
    15:00 +33°C° 0 mm 5 m/s 758 mmHg 39%
    16:00 +30°C° 0 mm 5 m/s 758 mmHg 42%
    17:00 +29°C° 0 mm 5 m/s 758 mmHg 45%
    18:00 +28°C° 0 mm 4 m/s 758 mmHg 49%
    19:00 +26°C° 0 mm 4 m/s 759 mmHg 54%
    20:00 +25°C° 0 mm 3 m/s 759 mmHg 60%
    21:00 +22°C° 0 mm 3 m/s 760 mmHg 65%
    22:00 +22°C° 0 mm 3 m/s 760 mmHg 66%
    23:00 +21°C° 0 mm 3 m/s 760 mmHg 66%

    2 Iunie, Vineri

    Timp Temperatura Precipitaţii Vânt Presiune Umiditate
    00:00 +21°C° 0 mm 3 m/s 760 mmHg 67%
    01:00 +20°C° 0 mm 3 m/s 760 mmHg 68%
    02:00 +20°C° 0 mm 3 m/s 760 mmHg 68%
    03:00 +19°C° 0 mm 2 m/s 760 mmHg 69%
    04:00 +21°C° 0 mm 2 m/s 760 mmHg 64%
    05:00 +23°C° 0 mm 2 m/s 760 mmHg 60%
    06:00 +24°C° 0 mm 2 m/s 761 mmHg 55%
    07:00 +26°C° 0 mm 2 m/s 761 mmHg 50%
    08:00 +27°C° 0 mm 2 m/s 761 mmHg 45%
    09:00 +29°C° 0 mm 2 m/s 761 mmHg 40%
    10:00 +30°C° 0 mm 2 m/s 761 mmHg 37%
    11:00 +31°C° 0 mm 2 m/s 761 mmHg 35%
    12:00 +33°C° 0 mm 3 m/s 761 mmHg 32%
    13:00 +34°C° 0 mm 4 m/s 760 mmHg 32%
    14:00 +34°C° 0 mm 4 m/s 760 mmHg 32%
    15:00 +34°C° 0 mm 5 m/s 760 mmHg 32%
    16:00 +32°C° 0 mm 5 m/s 760 mmHg 36%
    17:00 +30°C° 0 mm 5 m/s 760 mmHg 40%
    18:00 +28°C° 0 mm 5 m/s 761 mmHg 44%
    19:00 +27°C° 0 mm 5 m/s 761 mmHg 49%
    20:00 +25°C° 0 mm 4 m/s 762 mmHg 54%
    21:00 +24°C° 0 mm 3 m/s 762 mmHg 59%
    22:00 +22°C° 0 mm 3 m/s 762 mmHg 62%
    23:00 +23°C° 0 mm 2 m/s 763 mmHg 64%

    3 Iunie, Sâmbătă

    Timp Temperatura Precipitaţii Vânt Presiune Umiditate
    00:00 +21°C° 0 mm 2 m/s 763 mmHg 66%
    01:00 +21°C° 0 mm 2 m/s 763 mmHg 69%
    02:00 +20°C° 0 mm 2 m/s 763 mmHg 71%
    03:00 +21°C° 0 mm 1 m/s 763 mmHg 73%
    04:00 +22°C° 0 mm 1 m/s 764 mmHg 70%
    05:00 +23°C° 0 mm 1 m/s 764 mmHg 66%
    06:00 +24°C° 0 mm 1 m/s 764 mmHg 62%
    07:00 +26°C° 0 mm 1 m/s 765 mmHg 55%
    08:00 +28°C° 0 mm 2 m/s 765 mmHg 48%
    09:00 +29°C° 0 mm 2 m/s 765 mmHg 41%
    10:00 +30°C° 0 mm 3 m/s 765 mmHg 40%
    11:00 +30°C° 0 mm 3 m/s 765 mmHg 39%
    12:00 +32°C° 0 mm 4 m/s 764 mmHg 39%
    13:00 +32°C° 0 mm 4 m/s 764 mmHg 39%
    14:00 +32°C° 0 mm 5 m/s 764 mmHg 40%
    15:00 +30°C° 0 mm 5 m/s 764 mmHg 40%
    16:00 +29°C° 0 mm 4 m/s 764 mmHg 44%
    17:00 +28°C° 0 mm 4 m/s 764 mmHg 48%
    18:00 +27°C° 0 mm 4 m/s 764 mmHg 52%
    19:00 +25°C° 0 mm 3 m/s 764 mmHg 58%
    20:00 +24°C° 0 mm 3 m/s 764 mmHg 63%
    21:00 +23°C° 0 mm 2 m/s 765 mmHg 69%
    22:00 +21°C° 0 mm 2 m/s 764 mmHg 71%
    23:00 +21°C° 0 mm 2 m/s 764 mmHg 73%

    4 Iunie, Duminică

    Timp Temperatura Precipitaţii Vânt Presiune Umiditate
    00:00 +21°C° 0 mm 2 m/s 764 mmHg 74%
    01:00 +20°C° 0 mm 2 m/s 764 mmHg 75%
    02:00 +20°C° 0 mm 2 m/s 764 mmHg 76%
    03:00 +19°C° 0 mm 2 m/s 764 mmHg 77%
    04:00 +20°C° 0 mm 2 m/s 765 mmHg 73%
    05:00 +21°C° 0 mm 2 m/s 765 mmHg 69%
    06:00 +24°C° 0 mm 2 m/s 766 mmHg 64%
    07:00 +25°C° 0 mm 2 m/s 766 mmHg 57%
    08:00 +27°C° 0 mm 2 m/s 766 mmHg 49%
    09:00 +28°C° 0 mm 2 m/s 766 mmHg 41%
    10:00 +29°C° 0 mm 3 m/s 766 mmHg 38%
    11:00 +30°C° 0 mm 4 m/s 766 mmHg 35%
    12:00 +32°C° 0 mm 4 m/s 766 mmHg 33%
    13:00 +32°C° 0 mm 5 m/s 766 mmHg 33%
    14:00 +32°C° 0 mm 5 m/s 765 mmHg 34%
    15:00 +30°C° 0 mm 5 m/s 765 mmHg 34%
    16:00 +29°C° 0 mm 5 m/s 765 mmHg 38%
    17:00 +28°C° 0 mm 5 m/s 765 mmHg 41%
    18:00 +27°C° 0 mm 5 m/s 765 mmHg 45%
    19:00 +25°C° 0 mm 4 m/s 766 mmHg 52%
    20:00 +23°C° 0 mm 4 m/s 766 mmHg 60%
    21:00 +21°C° 0 mm 3 m/s 766 mmHg 67%
    22:00 +21°C° 0 mm 3 m/s 766 mmHg 70%
    23:00 +20°C° 0 mm 3 m/s 766 mmHg 72%
    Arată mai mult